Simultaneous Nadir Overpasses (SNOs) Predictions

Prediction of SNOs between NOAA-19 and TERRA Satellite Orbit:

Table of predicted SNOs for the next 14.0 days since TLE Epoch: 7/23/2022
Index Date (NOAA-19) Time (NOAA-19) Lat,Lon (NOAA-19) SZA (NOAA-19 ) Date (TERRA) Time (TERRA) Lat,Lon (TERRA) SZA (TERRA ) Distance(km) Time Diff (sec)
1 07/24/2022 20:04:18 80.82, -85.03 62.75 07/24/2022 20:04:08 80.81, -85.13 62.73 1.94 10
2 07/27/2022 01:37:13 -80.82, 11.58 116.78 07/27/2022 01:37:45 -80.83, 11.65 116.75 1.45 32
3 07/27/2022 02:28:11 80.82, 179.14 63.26 07/27/2022 02:27:12 80.80, 178.97 63.21 3.36 59
4 07/29/2022 08:01:07 -80.82, -84.43 116.26 07/29/2022 08:00:49 -80.82, -84.29 116.26 2.67 18
5 07/31/2022 13:33:58 80.82, 12.57 64.31 07/31/2022 13:34:25 80.83, 12.44 64.31 2.38 27
6 07/31/2022 14:25:00 -80.82, 179.88 115.68 07/31/2022 14:23:52 -80.83,-179.95 115.69 3.09 68
7 08/02/2022 19:06:55 -80.83, 108.98 115.16 08/02/2022 19:08:02 -80.84, 109.10 115.12 2.26 67
8 08/02/2022 19:57:51 80.82, -83.37 64.89 08/02/2022 19:57:28 80.83, -83.30 64.89 1.72 23
9 08/05/2022 01:30:48 -80.83, 13.20 114.54 08/05/2022 01:31:05 -80.84, 13.32 114.52 2.28 17



Historial Predications of SNOs between NOAA-19 and TERRA
